TimeEDT,TemperatureF,Dew PointF,Humidity,Sea Level PressureIn,VisibilityMPH,Wind Direction,Wind SpeedMPH,Gust SpeedMPH,PrecipitationIn,Events,Conditions,WindDirDegrees,DateUTC
12:15 AM,41.0,35.6,81,30.24,7.0,Calm,Calm,-,N/A,,Clear,0,2013-03-11 04:15:00
12:35 AM,39.2,35.6,87,30.24,7.0,Calm,Calm,-,N/A,,Clear,0,2013-03-11 04:35:00
1:15 AM,39.2,35.6,87,30.23,7.0,Calm,Calm,-,N/A,,Clear,0,2013-03-11 05:15:00
1:35 AM,39.2,35.6,87,30.23,10.0,Calm,Calm,-,N/A,,Clear,0,2013-03-11 05:35:00
1:55 AM,39.2,37.4,93,30.23,7.0,Calm,Calm,-,N/A,,Mostly Cloudy,0,2013-03-11 05:55:00
2:15 AM,41.0,37.4,87,30.22,7.0,Calm,Calm,-,N/A,,Overcast,0,2013-03-11 06:15:00
3:15 AM,42.8,41.0,93,30.20,7.0,Calm,Calm,-,N/A,,Mostly Cloudy,0,2013-03-11 07:15:00
3:35 AM,42.8,41.0,93,30.19,7.0,Calm,Calm,-,N/A,,Overcast,0,2013-03-11 07:35:00
3:55 AM,44.6,41.0,87,30.18,7.0,Calm,Calm,-,N/A,,Overcast,0,2013-03-11 07:55:00
4:15 AM,42.8,41.0,93,30.18,7.0,Calm,Calm,-,N/A,,Scattered Clouds,0,2013-03-11 08:15:00
4:35 AM,41.0,41.0,100,30.18,7.0,Calm,Calm,-,N/A,,Scattered Clouds,0,2013-03-11 08:35:00
4:55 AM,42.8,42.8,100,30.16,7.0,Calm,Calm,-,N/A,,Mostly Cloudy,0,2013-03-11 08:55:00
5:15 AM,42.8,42.8,100,30.16,7.0,Calm,Calm,-,N/A,,Scattered Clouds,0,2013-03-11 09:15:00
5:35 AM,42.8,42.8,100,30.17,7.0,Calm,Calm,-,N/A,,Clear,0,2013-03-11 09:35:00
5:55 AM,42.8,42.8,100,30.17,7.0,Calm,Calm,-,N/A,,Scattered Clouds,0,2013-03-11 09:55:00
6:15 AM,42.8,42.8,100,30.16,7.0,Calm,Calm,-,N/A,,Overcast,0,2013-03-11 10:15:00
6:35 AM,44.6,44.6,100,30.16,7.0,Calm,Calm,-,N/A,,Overcast,0,2013-03-11 10:35:00
6:55 AM,44.6,44.6,100,30.16,7.0,Calm,Calm,-,N/A,,Overcast,0,2013-03-11 10:55:00
7:15 AM,44.6,44.6,100,30.15,7.0,Calm,Calm,-,N/A,,Overcast,0,2013-03-11 11:15:00
7:35 AM,44.6,44.6,100,30.16,5.0,Calm,Calm,-,N/A,,Mostly Cloudy,0,2013-03-11 11:35:00
7:55 AM,46.4,46.4,100,30.15,5.0,Calm,Calm,-,N/A,,Scattered Clouds,0,2013-03-11 11:55:00
8:15 AM,48.2,48.2,100,30.16,5.0,Calm,Calm,-,N/A,,Clear,0,2013-03-11 12:15:00
8:35 AM,50.0,50.0,100,30.15,4.0,Calm,Calm,-,N/A,,Clear,0,2013-03-11 12:35:00
8:55 AM,53.6,53.6,100,30.15,4.0,ENE,3.5,-,N/A,,Clear,70,2013-03-11 12:55:00
9:15 AM,53.6,53.6,100,30.15,5.0,East,3.5,-,N/A,,Clear,80,2013-03-11 13:15:00
9:35 AM,55.4,53.6,94,30.15,5.0,East,3.5,-,N/A,,Scattered Clouds,80,2013-03-11 13:35:00
9:55 AM,59.0,53.6,82,30.14,4.0,East,4.6,-,N/A,,Haze,100,2013-03-11 13:55:00
10:15 AM,60.8,51.8,72,30.14,7.0,East,4.6,-,N/A,,Overcast,100,2013-03-11 14:15:00
10:35 AM,62.6,53.6,72,30.13,7.0,ESE,4.6,-,N/A,,Overcast,110,2013-03-11 14:35:00
11:15 AM,68.0,51.8,56,30.12,7.0,ESE,5.8,-,N/A,,Mostly Cloudy,120,2013-03-11 15:15:00
11:35 AM,68.0,51.8,56,30.13,7.0,SSE,6.9,-,N/A,,Mostly Cloudy,150,2013-03-11 15:35:00
12:15 PM,69.8,50.0,49,30.12,5.0,SSE,9.2,-,N/A,,Haze,160,2013-03-11 16:15:00
12:35 PM,69.8,50.0,49,30.11,7.0,SSE,12.7,18.4,N/A,,Overcast,160,2013-03-11 16:35:00
12:55 PM,69.8,50.0,49,30.11,7.0,South,13.8,25.3,N/A,,Overcast,170,2013-03-11 16:55:00
1:15 PM,69.8,50.0,49,30.11,4.0,South,10.4,19.6,N/A,,Haze,170,2013-03-11 17:15:00
1:35 PM,69.8,50.0,49,30.09,5.0,South,13.8,21.9,N/A,,Haze,170,2013-03-11 17:35:00
2:15 PM,69.8,51.8,53,30.08,7.0,South,15.0,19.6,N/A,,Overcast,170,2013-03-11 18:15:00
2:35 PM,68.0,51.8,56,30.07,7.0,SSE,10.4,19.6,N/A,,Overcast,160,2013-03-11 18:35:00
2:55 PM,71.6,51.8,50,30.05,7.0,South,10.4,17.3,N/A,,Overcast,180,2013-03-11 18:55:00
3:15 PM,69.8,51.8,53,30.05,5.0,SSE,13.8,20.7,N/A,,Haze,160,2013-03-11 19:15:00
3:35 PM,69.8,51.8,53,30.04,5.0,SE,10.4,19.6,N/A,,Haze,140,2013-03-11 19:35:00
3:55 PM,68.0,53.6,60,30.03,5.0,SE,8.1,-,N/A,,Haze,140,2013-03-11 19:55:00
4:15 PM,69.8,53.6,56,30.02,7.0,South,10.4,16.1,N/A,,Overcast,170,2013-03-11 20:15:00
4:35 PM,68.0,53.6,60,30.02,5.0,South,11.5,18.4,N/A,,Haze,170,2013-03-11 20:35:00
4:55 PM,66.2,53.6,64,30.03,7.0,South,12.7,23.0,N/A,,Overcast,170,2013-03-11 20:55:00
5:15 PM,64.4,55.4,73,30.03,7.0,SSE,8.1,16.1,N/A,,Overcast,150,2013-03-11 21:15:00
5:35 PM,64.4,53.6,68,30.02,5.0,SSE,11.5,19.6,N/A,,Haze,150,2013-03-11 21:35:00
5:55 PM,64.4,53.6,68,30.02,7.0,SSE,5.8,-,N/A,,Overcast,150,2013-03-11 21:55:00
6:15 PM,64.4,53.6,68,30.01,5.0,SSE,3.5,-,N/A,,Haze,150,2013-03-11 22:15:00
6:35 PM,64.4,53.6,68,30.01,7.0,SE,3.5,-,N/A,,Overcast,140,2013-03-11 22:35:00
6:55 PM,64.4,53.6,68,30.01,7.0,SE,3.5,-,N/A,,Overcast,130,2013-03-11 22:55:00
7:15 PM,62.6,53.6,72,30.01,5.0,SE,3.5,-,N/A,,Haze,140,2013-03-11 23:15:00
7:35 PM,62.6,53.6,72,30.01,7.0,SE,4.6,-,N/A,,Scattered Clouds,140,2013-03-11 23:35:00
7:55 PM,62.6,53.6,72,30.00,7.0,SSE,4.6,-,N/A,,Scattered Clouds,150,2013-03-11 23:55:00
8:15 PM,60.8,53.6,77,30.01,5.0,SE,5.8,-,N/A,,Haze,140,2013-03-12 00:15:00
8:35 PM,60.8,53.6,77,29.99,7.0,SE,4.6,-,N/A,,Overcast,140,2013-03-12 00:35:00
8:55 PM,60.8,53.6,77,29.97,7.0,SE,4.6,-,N/A,,Scattered Clouds,130,2013-03-12 00:55:00
9:15 PM,60.8,53.6,77,29.96,7.0,SE,5.8,-,N/A,,Clear,140,2013-03-12 01:15:00
9:35 PM,60.8,53.6,77,29.98,7.0,South,5.8,-,N/A,,Scattered Clouds,170,2013-03-12 01:35:00
9:55 PM,60.8,53.6,77,29.97,7.0,SSE,3.5,-,N/A,,Scattered Clouds,160,2013-03-12 01:55:00
10:15 PM,60.8,53.6,77,29.97,7.0,Calm,Calm,-,N/A,,Mostly Cloudy,0,2013-03-12 02:15:00
10:35 PM,60.8,55.4,82,29.97,7.0,South,3.5,-,N/A,,Overcast,190,2013-03-12 02:35:00
10:55 PM,60.8,55.4,82,29.96,7.0,Calm,Calm,-,N/A,,Overcast,0,2013-03-12 02:55:00
11:15 PM,62.6,55.4,77,29.96,7.0,SSE,5.8,-,N/A,,Mostly Cloudy,160,2013-03-12 03:15:00
11:35 PM,62.6,55.4,77,29.94,7.0,SSE,5.8,-,N/A,,Scattered Clouds,150,2013-03-12 03:35:00